Change the Weather History Date:

Tuesday, July 23, 2013

  Actual Average Record
Temperature  
Mean Temperature 65 °F -  
Max Temperature 75 °F 82 °F 96 °F (2007)
Min Temperature 55 °F 58 °F 45 °F (1992)
Growing Degree Days 15 (Base 50)    
Moisture  
Dew Point 53 °F    
Average Humidity 69    
Maximum Humidity 94    
Minimum Humidity 41    
Precipitation  
Precipitation 0.00 in - - ()
Sea Level Pressure  
Sea Level Pressure 30.01 in    
Wind  
Wind Speed 5 mph (North)    
Max Wind Speed 10 mph    
Max Gust Speed -    
Visibility 10 miles    
Events      
Averages and records for this station are not official NWS values.
T = Trace of Precipitation, MM = Missing Value Source: NWS Daily Summary

Daily Weather History Graph

Daily Weather History Graph

Search for Another Location

Airport or City:

Trip Planner

Search our weather history database for the weather conditions in past years. The results will help you decide how hot, cold, wet, or windy it might be!

Date:

Astronomy

Jul. 23, 2013 Rise Set
Actual Time 5:54 AM CDT 8:59 PM CDT
Civil Twilight 5:19 AM CDT 9:35 PM CDT
Nautical Twilight 4:33 AM CDT 10:20 PM CDT
Astronomical Twilight 3:38 AM CDT 11:15 PM CDT
Moon 9:19 PM CDT (7/23) 7:11 AM CDT (7/23)
Length of Visible Light 16h 15m
Length of Day
15h 05m
Full, 99% of the Moon is Illuminated
Jul 23
Full
Jul 29
Last Quarter
Aug 6
New
Aug 14
First Quarter
Aug 20
Full

Hourly Weather History & Observations

Time (CDT) Temp. Dew Point Humidity Pressure Visibility Wind Dir Wind Speed Gust Speed Precip Events Conditions
12:13 AM 57.2 °F 53.6 °F 88% 29.94 in 10.0 mi NW 4.6 mph - N/A   Clear
12:34 AM 57.2 °F 55.4 °F 94% 29.94 in 10.0 mi NW 5.8 mph - N/A   Clear
12:53 AM 57.2 °F 55.4 °F 94% 29.94 in 10.0 mi NNW 6.9 mph - N/A   Clear
1:13 AM 57.2 °F 53.6 °F 88% 29.95 in 10.0 mi NW 4.6 mph - N/A   Clear
1:33 AM 57.2 °F 55.4 °F 94% 29.94 in 10.0 mi NW 4.6 mph - N/A   Clear
1:53 AM 57.2 °F 53.6 °F 88% 29.95 in 10.0 mi NNW 5.8 mph - N/A   Clear
2:13 AM 57.2 °F 55.4 °F 94% 29.95 in 10.0 mi NNW 4.6 mph - N/A   Clear
2:33 AM 55.4 °F 53.6 °F 94% 29.95 in 10.0 mi NNW 4.6 mph - N/A   Clear
2:53 AM 55.4 °F 53.6 °F 94% 29.95 in 10.0 mi NNW 5.8 mph - N/A   Clear
3:14 AM 55.4 °F 53.6 °F 94% 29.95 in 10.0 mi North 3.5 mph - N/A   Clear
3:33 AM 55.4 °F 53.6 °F 94% 29.95 in 10.0 mi NNW 4.6 mph - N/A   Clear
3:53 AM 55.4 °F 53.6 °F 94% 29.96 in 10.0 mi NNW 4.6 mph - N/A   Clear
4:14 AM 55.4 °F 53.6 °F 94% 29.96 in 10.0 mi NNW 4.6 mph - N/A   Clear
4:33 AM 55.4 °F 53.6 °F 94% 29.96 in 10.0 mi North 5.8 mph - N/A   Clear
4:53 AM 55.4 °F 53.6 °F 94% 29.96 in 10.0 mi North 4.6 mph - N/A   Clear
5:13 AM 55.4 °F 51.8 °F 88% 29.97 in 10.0 mi NNW 4.6 mph - N/A   Clear
5:33 AM 55.4 °F 51.8 °F 88% 29.96 in 10.0 mi North 5.8 mph - N/A   Clear
5:53 AM 55.4 °F 51.8 °F 88% 29.97 in 10.0 mi NNW 6.9 mph - N/A   Clear
6:13 AM 55.4 °F 51.8 °F 88% 29.99 in 10.0 mi NNW 4.6 mph - N/A   Clear
6:34 AM 55.4 °F 51.8 °F 88% 30.00 in 10.0 mi NNW 4.6 mph - N/A   Clear
6:53 AM 55.4 °F 53.6 °F 94% 30.02 in 10.0 mi NW 4.6 mph - N/A   Clear
7:13 AM 55.4 °F 53.6 °F 94% 30.02 in 10.0 mi NNW 4.6 mph - N/A   Clear
7:33 AM 57.2 °F 53.6 °F 88% 30.02 in 10.0 mi NNW 3.5 mph - N/A   Clear
7:53 AM 59.0 °F 55.4 °F 88% 30.02 in 10.0 mi NNW 5.8 mph - N/A   Clear
8:13 AM 60.8 °F 55.4 °F 82% 30.02 in 10.0 mi North 4.6 mph - N/A   Clear
8:33 AM 62.6 °F 55.4 °F 77% 30.02 in 10.0 mi NE 8.1 mph - N/A   Clear
8:53 AM 62.6 °F 55.4 °F 77% 30.02 in 10.0 mi North 6.9 mph - N/A   Clear
9:13 AM 64.4 °F 55.4 °F 73% 30.03 in 10.0 mi NE 8.1 mph - N/A   Clear
9:33 AM 64.4 °F 55.4 °F 73% 30.03 in 10.0 mi North 6.9 mph - N/A   Clear
9:53 AM 66.2 °F 55.4 °F 68% 30.03 in 10.0 mi NNE 6.9 mph - N/A   Clear
10:13 AM 68.0 °F 53.6 °F 60% 30.04 in 10.0 mi NNE 6.9 mph - N/A   Clear
10:33 AM 68.0 °F 53.6 °F 60% 30.04 in 10.0 mi ENE 9.2 mph - N/A   Clear
10:53 AM 69.8 °F 53.6 °F 56% 30.04 in 10.0 mi NNE 8.1 mph - N/A   Clear
11:13 AM 69.8 °F 53.6 °F 56% 30.05 in 10.0 mi North 5.8 mph - N/A   Clear
11:33 AM 71.6 °F 53.6 °F 53% 30.05 in 10.0 mi North 6.9 mph - N/A   Clear
11:54 AM 71.6 °F 53.6 °F 53% 30.05 in 10.0 mi NE 6.9 mph - N/A   Clear
12:13 PM 71.6 °F 53.6 °F 53% 30.04 in 10.0 mi ENE 5.8 mph - N/A   Clear
12:33 PM 71.6 °F 51.8 °F 50% 30.04 in 10.0 mi NNE 8.1 mph - N/A   Clear
12:53 PM 73.4 °F 51.8 °F 47% 30.04 in 10.0 mi NE 9.2 mph - N/A   Clear
1:13 PM 73.4 °F 51.8 °F 47% 30.04 in 10.0 mi North 6.9 mph - N/A   Clear
1:33 PM 73.4 °F 51.8 °F 47% 30.04 in 10.0 mi North 6.9 mph - N/A   Clear
1:53 PM 73.4 °F 51.8 °F 47% 30.03 in 10.0 mi NNE 8.1 mph - N/A   Clear
2:13 PM 75.2 °F 51.8 °F 44% 30.03 in 10.0 mi North 6.9 mph - N/A   Scattered Clouds
2:34 PM 73.4 °F 51.8 °F 47% 30.03 in 10.0 mi NNE 3.5 mph - N/A   Scattered Clouds
2:53 PM 73.4 °F 51.8 °F 47% 30.03 in 10.0 mi NNE 4.6 mph - N/A   Scattered Clouds
3:13 PM 75.2 °F 51.8 °F 44% 30.03 in 10.0 mi NNW 4.6 mph - N/A   Scattered Clouds
3:33 PM 75.2 °F 51.8 °F 44% 30.03 in 10.0 mi NNW 6.9 mph - N/A   Scattered Clouds
3:53 PM 73.4 °F 53.6 °F 50% 30.03 in 10.0 mi NW 5.8 mph - N/A   Mostly Cloudy
4:13 PM 75.2 °F 50.0 °F 41% 30.03 in 10.0 mi NNW 3.5 mph - N/A   Scattered Clouds
4:33 PM 73.4 °F 51.8 °F 47% 30.03 in 10.0 mi NNW 8.1 mph - N/A   Scattered Clouds
4:53 PM 73.4 °F 51.8 °F 47% 30.03 in 10.0 mi NNW 10.4 mph - N/A   Scattered Clouds
5:14 PM 75.2 °F 50.0 °F 41% 30.03 in 10.0 mi NW 6.9 mph - N/A   Clear
5:33 PM 73.4 °F 51.8 °F 47% 30.03 in 10.0 mi NNW 6.9 mph - N/A   Clear
5:53 PM 73.4 °F 50.0 °F 44% 30.03 in 10.0 mi North 6.9 mph - N/A   Clear
6:13 PM 71.6 °F 51.8 °F 50% 30.03 in 10.0 mi North 5.8 mph - N/A   Scattered Clouds
6:33 PM 73.4 °F 51.8 °F 47% 30.03 in 10.0 mi North 6.9 mph - N/A   Clear
6:53 PM 73.4 °F 51.8 °F 47% 30.02 in 10.0 mi NNW 5.8 mph - N/A   Clear
7:13 PM 73.4 °F 53.6 °F 50% 30.02 in 10.0 mi NNW 6.9 mph - N/A   Scattered Clouds
7:33 PM 71.6 °F 53.6 °F 53% 30.02 in 10.0 mi North 5.8 mph - N/A   Scattered Clouds
7:54 PM 71.6 °F 51.8 °F 50% 30.02 in 10.0 mi North 4.6 mph - N/A   Clear
8:13 PM 69.8 °F 53.6 °F 56% 30.02 in 10.0 mi NNE 3.5 mph - N/A   Clear
8:33 PM 68.0 °F 55.4 °F 64% 30.03 in 10.0 mi Calm Calm - N/A   Clear
8:54 PM 66.2 °F 55.4 °F 68% 30.03 in 10.0 mi Calm Calm - N/A   Clear
9:13 PM 64.4 °F 55.4 °F 73% 30.03 in 10.0 mi Calm Calm - N/A   Clear
9:33 PM 64.4 °F 55.4 °F 73% 30.04 in 10.0 mi NW 3.5 mph - N/A   Clear
9:53 PM 62.6 °F 55.4 °F 77% 30.05 in 10.0 mi NW 3.5 mph - N/A   Scattered Clouds
10:13 PM 62.6 °F 53.6 °F 72% 30.05 in 10.0 mi NW 3.5 mph - N/A   Scattered Clouds
10:33 PM 62.6 °F 53.6 °F 72% 30.05 in 10.0 mi NW 3.5 mph - N/A   Clear
10:53 PM 62.6 °F 53.6 °F 72% 30.05 in 10.0 mi NW 3.5 mph - N/A   Clear
11:13 PM 60.8 °F 53.6 °F 77% 30.05 in 10.0 mi North 5.8 mph - N/A   Clear
11:34 PM 60.8 °F 55.4 °F 82% 30.04 in 10.0 mi Calm Calm - N/A   Scattered Clouds
11:53 PM 62.6 °F 53.6 °F 72% 30.04 in 10.0 mi NE 3.5 mph - N/A   Mostly Cloudy